| time (UTC) | temp F | wind direction | speed MPH | gust MPH | rain 1hr in | rain 24hr in | rain mn in | humidity % | barometer mb |
| 20260504050004 | 53 | 189 | 2.0 | 7.0 | 0.00 | 0.00 | 0.00 | 68 | 1010.9 |
| 20260504045504 | 53 | 232 | 2.0 | 7.0 | 0.00 | 0.00 | 0.00 | 68 | 1010.9 |
| 20260504045004 | 53 | 182 | 2.0 | 7.0 | 0.00 | 0.00 | 0.00 | 68 | 1010.9 |
| 20260504043004 | 52 | 203 | 1.0 | 5.0 | 0.00 | 0.00 | 0.00 | 68 | 1011.0 |
| 20260504042504 | 53 | 209 | 2.0 | 3.0 | 0.00 | 0.00 | 0.00 | 68 | 1011.1 |
| 20260504042004 | 52 | 217 | 2.0 | 3.0 | 0.00 | 0.00 | 0.00 | 68 | 1011.1 |
| 20260504041503 | 52 | 230 | 2.0 | 6.0 | 0.00 | 0.00 | 0.00 | 68 | 1011.2 |
| 20260504041005 | 52 | 227 | 2.0 | 5.0 | 0.00 | 0.00 | 0.00 | 69 | 1011.3 |
| 20260504040504 | 52 | 203 | 3.0 | 6.0 | 0.00 | 0.00 | 0.00 | 69 | 1011.3 |
| 20260504040004 | 52 | 198 | 1.0 | 3.0 | 0.00 | 0.00 | 0.00 | 69 | 1011.3 |
| 20260504035504 | 52 | 184 | 2.0 | 5.0 | 0.00 | 0.00 | 0.00 | 70 | 1011.4 |
| 20260504035004 | 51 | 169 | 0.0 | 3.0 | 0.00 | 0.00 | 0.00 | 70 | 1011.4 |
| 20260504034504 | 51 | 201 | 0.0 | 3.0 | 0.00 | 0.00 | 0.00 | 70 | 1011.4 |
| 20260504034004 | 51 | 204 | 0.0 | 3.0 | 0.00 | 0.00 | 0.00 | 71 | 1011.5 |
| 20260504033504 | 51 | 207 | 1.0 | 3.0 | 0.00 | 0.00 | 0.00 | 71 | 1011.6 |
| 20260504033004 | 51 | 221 | 0.0 | 3.0 | 0.00 | 0.00 | 0.00 | 71 | 1011.6 |
| 20260504032004 | 51 | 163 | 1.0 | 5.0 | 0.00 | 0.00 | 0.00 | 71 | 1011.7 |
| 20260504031504 | 51 | 211 | 0.0 | 2.0 | 0.00 | 0.00 | 0.00 | 72 | 1011.8 |
| 20260504031004 | 51 | 211 | 0.0 | 1.0 | 0.00 | 0.00 | 0.00 | 71 | 1011.8 |
| 20260504030504 | 51 | 211 | 0.0 | 1.0 | 0.00 | 0.00 | 0.00 | 71 | 1011.7 |
| 20260504030004 | 51 | 211 | 0.0 | 3.0 | 0.00 | 0.00 | 0.00 | 70 | 1011.8 |
| 20260504025004 | 51 | 200 | 1.0 | 3.0 | 0.00 | 0.00 | 0.00 | 70 | 1011.9 |
| 20260504024504 | 52 | 181 | 0.0 | 2.0 | 0.00 | 0.00 | 0.00 | 70 | 1011.9 |
| 20260504024005 | 52 | 181 | 1.0 | 2.0 | 0.00 | 0.00 | 0.00 | 69 | 1012.0 |
| 20260504023504 | 52 | 181 | 0.0 | 1.0 | 0.00 | 0.00 | 0.00 | 69 | 1011.9 |
| 20260504023004 | 52 | 181 | 0.0 | 0.0 | 0.00 | 0.00 | 0.00 | 68 | 1011.9 |
| 20260504022504 | 52 | 181 | 1.0 | 2.0 | 0.00 | 0.00 | 0.00 | 68 | 1011.9 |
| 20260504022004 | 52 | 184 | 1.0 | 2.0 | 0.00 | 0.00 | 0.00 | 68 | 1011.9 |
| 20260504021504 | 53 | 184 | 0.0 | 3.0 | 0.00 | 0.00 | 0.00 | 66 | 1011.9 |
| 20260504020504 | 53 | 182 | 1.0 | 5.0 | 0.00 | 0.00 | 0.00 | 66 | 1011.8 |
| 20260504020004 | 53 | 195 | 1.0 | 3.0 | 0.00 | 0.00 | 0.00 | 65 | 1011.8 |
| 20260504015004 | 54 | 215 | 3.0 | 6.0 | 0.00 | 0.00 | 0.00 | 63 | 1011.8 |
| 20260504014504 | 54 | 215 | 1.0 | 3.0 | 0.00 | 0.00 | 0.00 | 64 | 1011.9 |
| 20260504014004 | 54 | 182 | 1.0 | 5.0 | 0.00 | 0.00 | 0.00 | 64 | 1011.8 |
| 20260504013504 | 54 | 179 | 3.0 | 5.0 | 0.00 | 0.00 | 0.00 | 64 | 1011.8 |
| 20260504013004 | 54 | 216 | 2.0 | 7.0 | 0.00 | 0.00 | 0.00 | 64 | 1011.7 |
| 20260504012504 | 54 | 209 | 2.0 | 7.0 | 0.00 | 0.00 | 0.00 | 65 | 1011.7 |
| 20260504012004 | 54 | 192 | 2.0 | 3.0 | 0.00 | 0.00 | 0.00 | 65 | 1011.7 |
| 20260504011504 | 54 | 209 | 3.0 | 6.0 | 0.00 | 0.00 | 0.00 | 66 | 1011.7 |
| 20260504011004 | 54 | 223 | 2.0 | 5.0 | 0.00 | 0.00 | 0.00 | 67 | 1011.7 |
| 20260504010504 | 54 | 203 | 2.0 | 3.0 | 0.00 | 0.00 | 0.00 | 66 | 1011.6 |
| 20260504010004 | 54 | 227 | 3.0 | 8.0 | 0.00 | 0.00 | 0.00 | 65 | 1011.6 |
| 20260504005504 | 54 | 218 | 3.0 | 6.0 | 0.00 | 0.00 | 0.00 | 65 | 1011.6 |
| 20260504005004 | 55 | 201 | 2.0 | 6.0 | 0.00 | 0.00 | 0.00 | 62 | 1011.5 |
| 20260504004504 | 56 | 156 | 5.0 | 9.0 | 0.00 | 0.00 | 0.00 | 57 | 1011.6 |
| 20260504004004 | 56 | 194 | 3.0 | 12.0 | 0.00 | 0.00 | 0.00 | 55 | 1011.7 |
| 20260504003504 | 57 | 201 | 3.0 | 5.0 | 0.00 | 0.00 | 0.00 | 54 | 1011.8 |
| 20260504003004 | 57 | 198 | 5.0 | 10.0 | 0.00 | 0.00 | 0.00 | 52 | 1011.7 |
| 20260504002504 | 57 | 234 | 3.0 | 8.0 | 0.00 | 0.00 | 0.00 | 52 | 1011.7 |
| 20260504002004 | 57 | 190 | 4.0 | 7.0 | 0.00 | 0.00 | 0.00 | 52 | 1011.6 |
| 20260504001504 | 57 | 201 | 4.0 | 8.0 | 0.00 | 0.00 | 0.00 | 51 | 1011.5 |
| 20260504001004 | 58 | 222 | 3.0 | 12.0 | 0.00 | 0.00 | 0.00 | 50 | 1011.6 |
| 20260504000504 | 58 | 177 | 2.0 | 10.0 | 0.00 | 0.00 | 0.00 | 50 | 1011.7 |
| 20260504000004 | 58 | 164 | 1.0 | 6.0 | 0.00 | 0.00 | 0.00 | 49 | 1011.9 |
| 20260503235504 | 58 | 197 | 5.0 | 12.0 | 0.00 | 0.00 | 0.00 | 49 | 1011.9 |
| 20260503235004 | 58 | 236 | 5.0 | 10.0 | 0.00 | 0.00 | 0.00 | 48 | 1012.0 |
| 20260503234504 | 58 | 191 | 3.0 | 8.0 | 0.00 | 0.00 | 0.00 | 49 | 1011.9 |
| 20260503234004 | 58 | 203 | 3.0 | 7.0 | 0.00 | 0.00 | 0.00 | 49 | 1011.9 |
| 20260503233504 | 58 | 216 | 2.0 | 5.0 | 0.00 | 0.00 | 0.00 | 51 | 1011.8 |
| 20260503233004 | 58 | 194 | 1.0 | 3.0 | 0.00 | 0.00 | 0.00 | 51 | 1011.7 |
| 20260503232004 | 58 | 203 | 4.0 | 9.0 | 0.00 | 0.00 | 0.00 | 47 | 1011.8 |
| 20260503231503 | 59 | 217 | 2.0 | 8.0 | 0.00 | 0.00 | 0.00 | 48 | 1011.8 |
| 20260503231004 | 59 | 199 | 2.0 | 5.0 | 0.00 | 0.00 | 0.00 | 47 | 1011.8 |
| 20260503230004 | 59 | 260 | 3.0 | 8.0 | 0.00 | 0.00 | 0.00 | 47 | 1012.0 |
| 20260503225504 | 59 | 188 | 3.0 | 16.0 | 0.00 | 0.00 | 0.00 | 47 | 1012.1 |
| 20260503225004 | 59 | 186 | 3.0 | 12.0 | 0.00 | 0.00 | 0.00 | 45 | 1012.2 |
| 20260503224504 | 60 | 221 | 3.0 | 10.0 | 0.00 | 0.00 | 0.00 | 46 | 1012.2 |
| 20260503224004 | 60 | 168 | 2.0 | 13.0 | 0.00 | 0.00 | 0.00 | 45 | 1012.4 |
| 20260503223004 | 60 | 177 | 3.0 | 10.0 | 0.00 | 0.00 | 0.00 | 44 | 1012.5 |
| 20260503222504 | 60 | 231 | 6.0 | 13.0 | 0.00 | 0.00 | 0.00 | 42 | 1012.7 |
| 20260503222004 | 60 | 187 | 5.0 | 13.0 | 0.00 | 0.00 | 0.00 | 43 | 1012.7 |
| 20260503221004 | 61 | 178 | 6.0 | 13.0 | 0.00 | 0.00 | 0.00 | 42 | 1012.9 |
| 20260503220504 | 61 | 237 | 6.0 | 15.0 | 0.00 | 0.00 | 0.00 | 43 | 1012.9 |
| 20260503215504 | 61 | 225 | 7.0 | 13.0 | 0.00 | 0.00 | 0.00 | 41 | 1012.9 |
| 20260503215004 | 61 | 186 | 10.0 | 16.0 | 0.00 | 0.00 | 0.00 | 40 | 1013.2 |
| 20260503214504 | 62 | 205 | 6.0 | 15.0 | 0.00 | 0.00 | 0.00 | 42 | 1013.3 |
| 20260503214004 | 61 | 200 | 3.0 | 8.0 | 0.00 | 0.00 | 0.00 | 44 | 1013.3 |
| 20260503213504 | 61 | 162 | 6.0 | 10.0 | 0.00 | 0.00 | 0.00 | 42 | 1013.3 |
| 20260503213004 | 61 | 184 | 5.0 | 13.0 | 0.00 | 0.00 | 0.00 | 41 | 1013.5 |
| 20260503212504 | 61 | 206 | 7.0 | 18.0 | 0.00 | 0.00 | 0.00 | 40 | 1013.5 |
| 20260503211504 | 61 | 224 | 9.0 | 17.0 | 0.00 | 0.00 | 0.00 | 41 | 1013.5 |
| 20260503210004 | 60 | 189 | 7.0 | 16.0 | 0.00 | 0.00 | 0.00 | 43 | 1013.9 |
| 20260503205004 | 60 | 208 | 5.0 | 10.0 | 0.00 | 0.00 | 0.00 | 44 | 1013.9 |
| 20260503204504 | 59 | 226 | 4.0 | 10.0 | 0.00 | 0.00 | 0.00 | 42 | 1014.1 |
| 20260503204004 | 59 | 258 | 5.0 | 12.0 | 0.00 | 0.00 | 0.00 | 41 | 1014.3 |
| 20260503203504 | 59 | 178 | 4.0 | 9.0 | 0.00 | 0.00 | 0.00 | 43 | 1014.7 |
| 20260503203004 | 59 | 195 | 5.0 | 9.0 | 0.00 | 0.00 | 0.00 | 44 | 1014.6 |
| 20260503202504 | 59 | 232 | 5.0 | 10.0 | 0.00 | 0.00 | 0.00 | 43 | 1014.7 |
| 20260503202004 | 59 | 214 | 3.0 | 7.0 | 0.00 | 0.00 | 0.00 | 44 | 1014.6 |
| 20260503201504 | 59 | 220 | 5.0 | 9.0 | 0.00 | 0.00 | 0.00 | 42 | 1014.6 |
| 20260503201004 | 59 | 261 | 5.0 | 12.0 | 0.00 | 0.00 | 0.00 | 43 | 1014.5 |
| 20260503200504 | 59 | 218 | 6.0 | 13.0 | 0.00 | 0.00 | 0.00 | 43 | 1014.5 |
| 20260503200004 | 59 | 220 | 7.0 | 12.0 | 0.00 | 0.00 | 0.00 | 42 | 1014.5 |
| 20260503195504 | 60 | 245 | 5.0 | 12.0 | 0.00 | 0.00 | 0.00 | 41 | 1014.7 |
| 20260503194504 | 59 | 224 | 3.0 | 13.0 | 0.00 | 0.00 | 0.00 | 44 | 1014.9 |
| 20260503193504 | 59 | 211 | 6.0 | 16.0 | 0.00 | 0.00 | 0.00 | 42 | 1015.0 |
| 20260503193004 | 58 | 246 | 6.0 | 16.0 | 0.00 | 0.00 | 0.00 | 45 | 1015.2 |
| 20260503192504 | 57 | 180 | 5.0 | 13.0 | 0.00 | 0.00 | 0.00 | 44 | 1015.4 |
| 20260503192004 | 57 | 198 | 5.0 | 13.0 | 0.00 | 0.00 | 0.00 | 41 | 1015.4 |
| 20260503191004 | 57 | 233 | 5.0 | 12.0 | 0.00 | 0.00 | 0.00 | 42 | 1015.9 |
| 20260503190504 | 57 | 253 | 8.0 | 14.0 | 0.00 | 0.00 | 0.00 | 44 | 1015.9 |
| 20260503190004 | 58 | 219 | 5.0 | 14.0 | 0.00 | 0.00 | 0.00 | 43 | 1016.0 |
| 20260503185504 | 58 | 205 | 6.0 | 14.0 | 0.00 | 0.00 | 0.00 | 42 | 1016.1 |
| 20260503185004 | 58 | 254 | 3.0 | 9.0 | 0.00 | 0.00 | 0.00 | 45 | 1016.2 |
| 20260503184504 | 58 | 212 | 6.0 | 12.0 | 0.00 | 0.00 | 0.00 | 44 | 1016.2 |
| 20260503184004 | 58 | 212 | 7.0 | 13.0 | 0.00 | 0.00 | 0.00 | 41 | 1016.2 |
| 20260503183504 | 58 | 194 | 5.0 | 13.0 | 0.00 | 0.00 | 0.00 | 44 | 1016.3 |
| 20260503182504 | 58 | 210 | 7.0 | 12.0 | 0.00 | 0.00 | 0.00 | 42 | 1016.4 |
| 20260503182005 | 58 | 228 | 5.0 | 13.0 | 0.00 | 0.00 | 0.00 | 45 | 1016.6 |
| 20260503181004 | 58 | 264 | 5.0 | 10.0 | 0.00 | 0.00 | 0.00 | 44 | 1016.7 |
| 20260503180504 | 58 | 208 | 6.0 | 13.0 | 0.00 | 0.00 | 0.00 | 42 | 1016.7 |
| 20260503180004 | 58 | 174 | 6.0 | 13.0 | 0.00 | 0.00 | 0.00 | 43 | 1016.8 |
| 20260503175504 | 58 | 224 | 9.0 | 16.0 | 0.00 | 0.00 | 0.00 | 41 | 1016.8 |
| 20260503174504 | 59 | 215 | 5.0 | 13.0 | 0.00 | 0.00 | 0.00 | 48 | 1016.8 |
| 20260503174004 | 58 | 215 | 3.0 | 8.0 | 0.00 | 0.00 | 0.00 | 49 | 1016.9 |
| 20260503173504 | 58 | 199 | 5.0 | 12.0 | 0.00 | 0.00 | 0.00 | 45 | 1016.9 |
| 20260503173004 | 57 | 204 | 7.0 | 17.0 | 0.00 | 0.00 | 0.00 | 43 | 1017.0 |
| 20260503172504 | 57 | 189 | 6.0 | 13.0 | 0.00 | 0.00 | 0.00 | 42 | 1017.1 |
| 20260503171504 | 57 | 160 | 6.0 | 14.0 | 0.00 | 0.00 | 0.00 | 44 | 1017.2 |
| 20260503171003 | 57 | 260 | 6.0 | 13.0 | 0.00 | 0.00 | 0.00 | 43 | 1017.3 |
| 20260503151004 | 53 | 223 | 8.0 | 14.0 | 0.00 | 0.00 | 0.00 | 50 | 1019.0 |
| 20260503150503 | 54 | 202 | 6.0 | 17.0 | 0.00 | 0.00 | 0.00 | 51 | 1018.9 |
| 20260503131004 | 46 | 226 | 5.0 | 10.0 | 0.00 | 0.00 | 0.00 | 62 | 1019.0 |
| 20260503130504 | 46 | 215 | 7.0 | 12.0 | 0.00 | 0.00 | 0.00 | 62 | 1019.0 |
| 20260503110503 | 38 | 218 | 1.0 | 5.0 | 0.00 | 0.00 | 0.00 | 76 | 1018.3 |
| 20260503090504 | 36 | 207 | 0.0 | 2.0 | 0.00 | 0.00 | 0.00 | 83 | 1017.9 |
| 20260503081505 | 35 | 298 | 1.0 | 2.0 | 0.00 | 0.00 | 0.00 | 86 | 1017.9 |
| 20260503081004 | 35 | 298 | 0.0 | 2.0 | 0.00 | 0.00 | 0.00 | 86 | 1017.8 |
| 20260503080504 | 35 | 298 | 0.0 | 1.0 | 0.00 | 0.00 | 0.00 | 86 | 1017.8 |
| 20260503072005 | 35 | 298 | 1.0 | 2.0 | 0.00 | 0.00 | 0.00 | 86 | 1017.8 |
| 20260503071505 | 35 | 298 | 1.0 | 1.0 | 0.00 | 0.00 | 0.00 | 86 | 1017.8 |
| 20260503071005 | 35 | 298 | 1.0 | 2.0 | 0.00 | 0.00 | 0.00 | 86 | 1017.8 |
| 20260503070505 | 35 | 298 | 0.0 | 2.0 | 0.00 | 0.00 | 0.00 | 86 | 1017.8 |